Location: Belfast
(54.5830°N, 5.9330°W)
Time: 14:10:17
(UTC+01:00)

ISS - Pass Details

Date: 24 May 2017
Orbit: 402 x 408 km, 51.6° (Epoch: 26 May)

Event Time Altitude Azimuth Distance (km) Brightness Sun altitude
Rises 02:29:50 0° 269° (W) 2,332 -0.2 -13.2°
Reaches altitude 10° 02:31:58 10° 263° (W) 1,470 -1.2 -13.1°
Maximum altitude 02:35:08 46° 189° (S) 558 -3.6 -13.0°
Drops below altitude 10° 02:38:18 10° 115° (ESE) 1,464 -1.1 -12.8°
Sets 02:40:25 0° 109° (ESE) 2,321 0.0 -12.7°
